Location: ??????
(54.8268°N, 39.2163°E)
Time: 05:59:05
(UTC+00:00)

NOSS 3-2 (A) - Pass Details

Date: 13 September 2025
Orbit: 668 x 1535 km, 63.4° (Epoch: 11 December)

Event Time Altitude Azimuth Distance (km) Brightness Sun altitude
Rises 18:22:10 0° 310° (NW) 3,757 8.1 -21.3°
Reaches altitude 10° 18:24:35 10° 308° (NW) 2,918 7.2 -21.5°
Maximum altitude 18:31:33 64° 229° (SW) 1,373 4.2 -22.3°
Enters shadow 18:35:25 34° 162° (SSE) 2,068 4.7 -22.7°
